FW9340 Weather Reports


time (UTC)temp
C
wind
direction
speed
KPH
gust
KPH
rain 1hr
cm
rain 24hr
cm
rain mn
cm
humidity
%
barometer
mb
20260505041540 17 0 1.6 4.8 0.00 0.00 0.00 58 1011.3
20260505040041 17 236 0.0 6.4 0.00 0.00 0.00 57 1011.2
20260505034540 17 0 0.0 4.8 0.00 0.00 0.00 56 1011.1
20260505033040 18 245 3.2 4.8 0.00 0.00 0.00 55 1011.1
20260505031549 18 227 3.2 9.7 0.00 0.00 0.00 54 1011.0
20260505030040 18 219 3.2 12.9 0.00 0.00 0.00 54 1011.0
20260505024540 18 228 1.6 9.7 0.00 0.00 0.00 53 1011.0
20260505023035 18 236 3.2 6.4 0.00 0.00 0.00 53 1011.0
20260505021541 18 0 0.0 4.8 0.00 0.00 0.00 52 1010.9
20260505020039 18 0 0.0 3.2 0.00 0.00 0.00 52 1010.8
20260505014540 18 0 0.0 8.0 0.00 0.00 0.00 52 1010.7
20260505013055 18 0 0.0 3.2 0.00 0.00 0.00 52 1010.4
20260505011547 19 126 0.0 0.0 0.00 0.00 0.00 51 1010.5
20260505010041 20 0 0.0 0.0 0.00 0.00 0.00 49 1010.4
20260505004540 20 0 0.0 0.0 0.00 0.00 0.00 46 1010.2
20260505003039 21 148 0.0 3.2 0.00 0.00 0.00 45 1009.9
20260505001539 21 0 1.6 6.4 0.00 0.00 0.00 44 1010.1
20260505000054 21 216 1.6 6.4 0.00 0.00 0.00 43 1010.0
20260504234543 21 124 3.2 17.7 0.00 0.00 0.00 42 1010.0
20260504233043 22 163 3.2 14.5 0.00 0.00 0.00 41 1009.9
20260504231542 22 238 3.2 16.1 0.00 0.00 0.00 40 1009.7
20260504230040 22 154 4.8 17.7 0.00 0.00 0.00 39 1009.8
20260504224539 22 227 9.7 32.2 0.00 0.00 0.00 38 1009.9
20260504223047 23 198 8.0 22.5 0.00 0.00 0.00 37 1009.7
20260504221539 23 192 11.3 24.1 0.00 0.00 0.00 36 1009.6
20260504220044 23 229 9.7 29.0 0.00 0.00 0.00 36 1009.7
20260504214546 23 219 9.7 22.5 0.00 0.00 0.00 36 1009.7
20260504213040 23 251 4.8 17.7 0.00 0.00 0.00 37 1009.7
20260504211542 23 335 6.4 17.7 0.00 0.00 0.00 36 1009.7
20260504210042 23 237 9.7 19.3 0.00 0.00 0.00 34 1009.7
20260504204540 23 234 8.0 17.7 0.00 0.00 0.00 36 1009.8
20260504203040 23 156 6.4 19.3 0.00 0.00 0.00 36 1009.9
20260504201550 23 257 8.0 16.1 0.00 0.00 0.00 36 1010.2
20260504200046 23 148 4.8 25.7 0.00 0.00 0.00 35 1010.4
20260504194547 23 54 6.4 22.5 0.00 0.00 0.00 36 1010.4
20260504193040 22 333 6.4 19.3 0.00 0.00 0.00 37 1010.7
20260504191548 22 222 9.7 16.1 0.00 0.00 0.00 37 1011.2
20260504190039 22 210 1.6 25.7 0.00 0.00 0.00 37 1011.4
20260504184559 22 263 4.8 19.3 0.00 0.00 0.00 39 1011.7
20260504183042 22 291 6.4 16.1 0.00 0.00 0.00 41 1012.0
20260504181540 21 175 8.0 19.3 0.00 0.00 0.00 38 1012.0
20260504180042 22 242 1.6 11.3 0.00 0.00 0.00 39 1012.2
20260504174540 22 162 3.2 17.7 0.00 0.00 0.00 38 1012.2
20260504173040 21 150 4.8 20.9 0.00 0.00 0.00 38 1012.3
20260504171540 21 226 9.7 20.9 0.00 0.00 0.00 40 1012.7
20260504081542 7 0 0.0 0.0 0.00 0.00 0.00 73 1015.3
20260504044544 6 0 0.0 0.0 0.00 0.00 0.00 74 1015.6
20260504043043 5 0 0.0 0.0 0.00 0.00 0.00 73 1015.6